sat.trackr.live / text

‹ back to catalog

STARLINK-35633

NORAD 66162 · 2025-240S

PAYLOAD ACTIVE UNKNOWN

§ Identity

Operator
Country
US
Launch date
2025-10-25
Launch site
AFWTR
Launch vehicle
Mass (kg)
RCS (m²)

Purposes: comms

External: N2YO · Heavens-Above · Gunter

§ Orbital elements

Epoch: 2026-09-20T22:13:25.455648Z

Period
93.85 min
Inclination
53.1575°
Eccentricity
0.0001116
Mean motion
15.34403084 rev/d
Perigee alt
461.9 km
Apogee alt
463.5 km
Semi-major
6,840.8 km
B*
6.1963e-4
RAAN
233.5632°
Arg perigee
308.1382°
Mean anomaly
51.9520°
Rev number
5,191

§ Raw data

STARLINK-356331 66162U 25240S   26263.92598907  .00020619  00000+0  61963-3 0  99972 66162  53.1575 233.5632 0001116 308.1382  51.9520 15.34403084 51917

JSON: /api/v1/satellites/66162 · /tle

For live sub-satellite position, see the globe view (requires WebGL).

§ Visibility from observer

Set your observer location to see the next 7 days of passes ≥ 10°. The values pass through the URL so the page stays shareable.

No JS? Fill the form by hand. The geolocation button needs JavaScript.